Florence, SC

11:47 PM EST on February 25, 2017 (GMT -0500)
Florence Regional

Weather History for KFLO - August, 2013

Change the Weather History Date:

Thursday, August 22, 2013

  Actual Average Record
Temperature  
Mean Temperature 82 °F 80 °F  
Max Temperature 91 °F 89 °F 102 °F (2007)
Min Temperature 73 °F 70 °F 60 °F (1953)
Degree Days  
Heating Degree Days 0 0  
Month to date heating degree days 0 0  
Since 1 June heating degree days 0 1  
Since 1 July heating degree days 0 0  
Cooling Degree Days 17 15  
Month to date cooling degree days 323 340  
Year to date cooling degree days 1508 1546  
Since 1 June cooling degree days 1241 1239  
Growing Degree Days 32 (Base 50)    
Moisture  
Dew Point 72 °F    
Average Humidity 75    
Maximum Humidity 94    
Minimum Humidity 56    
Precipitation  
Precipitation 0.79 in 0.17 in 1.25 in (1951)
Month to date precipitation 2.52 3.79  
Year to date precipitation 44.54 29.03  
Sea Level Pressure  
Sea Level Pressure 30.09 in    
Wind  
Wind Speed 3 mph (SW)    
Max Wind Speed 21 mph    
Max Gust Speed 32 mph    
Visibility 8 miles    
Events Fog , Rain , Thunderstorm    
T = Trace of Precipitation, MM = Missing Value Source: NWS Daily Summary

Daily Weather History Graph

Daily Weather History Graph

Search for Another Location

Airport or City:

Trip Planner

Search our weather history database for the weather conditions in past years. The results will help you decide how hot, cold, wet, or windy it might be!

Date:

Astronomy

Aug. 22, 2013 Rise Set
Actual Time 6:45 AM EDT 7:57 PM EDT
Civil Twilight 6:19 AM EDT 8:23 PM EDT
Nautical Twilight 5:48 AM EDT 8:54 PM EDT
Astronomical Twilight 5:15 AM EDT 9:26 PM EDT
Moon 8:49 PM EDT (8/22) 8:24 AM EDT (8/22)
Length of Visible Light 14h 04m
Length of Day
13h 12m
Waning Gibbous, 97% of the Moon is Illuminated
Aug 22
Waning Gibbous
Aug 28
Last Quarter
Sep 5
New
Sep 12
First Quarter
Sep 19
Full

Hourly Weather History & Observations

Time (EDT) Temp. Heat Index Dew Point Humidity Pressure Visibility Wind Dir Wind Speed Gust Speed Precip Events Conditions
12:53 AM 73.9 °F - 72.0 °F 93% 30.15 in 10.0 mi Calm Calm - N/A   Overcast
1:53 AM 73.9 °F - 71.1 °F 91% 30.15 in 10.0 mi Calm Calm - N/A   Clear
2:53 AM 73.9 °F - 71.1 °F 91% 30.14 in 10.0 mi Calm Calm - N/A   Clear
3:53 AM 73.0 °F - 71.1 °F 93% 30.13 in 10.0 mi SSW 3.5 mph - N/A   Clear
4:53 AM 73.9 °F - 72.0 °F 93% 30.12 in 10.0 mi Calm Calm - N/A   Clear
5:53 AM 73.9 °F - 71.1 °F 91% 30.12 in 9.0 mi Calm Calm - N/A   Clear
6:53 AM 73.9 °F - 72.0 °F 93% 30.13 in 9.0 mi Calm Calm - N/A   Clear
7:01 AM 73.4 °F - 71.6 °F 94% 30.14 in 9.0 mi Calm Calm - N/A   Partly Cloudy
7:53 AM 75.0 °F - 73.0 °F 94% 30.15 in 10.0 mi West 3.5 mph - N/A   Clear
8:53 AM 77.0 °F - 73.0 °F 88% 30.15 in 10.0 mi West 4.6 mph - N/A   Mostly Cloudy
9:53 AM 79.0 °F - 73.0 °F 82% 30.15 in 10.0 mi SW 5.8 mph - N/A   Clear
10:53 AM 82.9 °F 88.0 °F 72.0 °F 69% 30.14 in 10.0 mi West 5.8 mph - N/A   Clear
11:53 AM 86.0 °F 93.0 °F 73.0 °F 65% 30.13 in 10.0 mi WSW 5.8 mph - N/A   Clear
12:53 PM 88.0 °F 95.6 °F 73.0 °F 61% 30.11 in 10.0 mi Calm Calm - N/A   Partly Cloudy
1:53 PM 88.0 °F 95.6 °F 73.0 °F 61% 30.09 in 10.0 mi NW 4.6 mph - N/A   Scattered Clouds
2:53 PM 90.0 °F 97.9 °F 73.0 °F 57% 30.05 in 10.0 mi Variable 4.6 mph - N/A   Scattered Clouds
3:53 PM 90.0 °F 96.9 °F 72.0 °F 55% 30.03 in 10.0 mi West 3.5 mph - N/A   Partly Cloudy
4:53 PM 87.1 °F 92.8 °F 71.1 °F 59% 30.01 in 10.0 mi Calm Calm - N/A   Mostly Cloudy
5:37 PM 80.6 °F 85.4 °F 73.4 °F 79% 30.05 in 10.0 mi SSE 16.1 mph - N/A   Mostly Cloudy
5:53 PM 78.1 °F - 71.1 °F 79% 30.04 in 10.0 mi SSE 16.1 mph 23.0 mph N/A   Mostly Cloudy
6:23 PM 75.2 °F - 71.6 °F 89% 30.05 in 10.0 mi South 9.2 mph - N/A Rain , Thunderstorm Light Thunderstorms and Rain
6:36 PM 73.4 °F - 71.6 °F 94% 30.07 in 1.8 mi SW 12.7 mph - N/A Rain , Thunderstorm Heavy Thunderstorms and Rain
6:51 PM 73.4 °F - 71.6 °F 94% 30.06 in 0.5 mi SSW 6.9 mph - N/A Fog , Rain , Thunderstorm Heavy Thunderstorms and Rain
6:53 PM 73.9 °F - 72.0 °F 93% 30.05 in 0.5 mi SSW 11.5 mph 24.2 mph N/A Fog , Rain , Thunderstorm Heavy Thunderstorms and Rain
6:57 PM 73.4 °F - 69.8 °F 88% 30.05 in 1.8 mi SSW 17.3 mph 32.2 mph 0.02 in Rain , Thunderstorm Heavy Thunderstorms and Rain
7:12 PM 73.4 °F - 69.8 °F 88% 30.04 in 1.8 mi South 9.2 mph 28.8 mph 0.40 in Rain , Thunderstorm Heavy Thunderstorms and Rain
7:29 PM 73.4 °F - 69.8 °F 88% 30.03 in 1.8 mi South 3.5 mph - 0.41 in Thunderstorm Unknown
7:53 PM 73.0 °F - 70.0 °F 90% 30.04 in 10.0 mi Calm Calm - 0.41 in Thunderstorm Mostly Cloudy
8:53 PM 73.9 °F - 71.1 °F 91% 30.07 in 10.0 mi NW 5.8 mph - N/A Rain , Thunderstorm Light Rain
9:13 PM 73.4 °F - 71.6 °F 94% 30.06 in 10.0 mi Calm Calm - 0.00 in Rain Light Rain
9:53 PM 73.0 °F - 71.1 °F 93% 30.04 in 10.0 mi Calm Calm - 0.00 in   Partly Cloudy
10:53 PM 73.0 °F - 71.1 °F 93% 30.05 in 10.0 mi WSW 3.5 mph - N/A   Clear
11:53 PM 73.0 °F - 71.1 °F 93% 30.04 in 10.0 mi Calm Calm - N/A   Clear